#timestamp,LO_Frequency,Hit,StdDev 
1456117215.1,286046995.6,N
1456117216.0,286046995.6,N
1456117235.8,286046997.7,N
1456117255.7,286046998.7,N
1456117275.5,286046994.9,N
1456117295.3,286046991.8,N
1456117315.1,286046996.7,N
1456117335.9,286046993.8,N
1456117355.7,286046992.4,N
1456117375.5,286046991.0,N
1456117395.4,286046987.1,Y
1456117415.2,286046992.3,P
1456117435.0,286046992.2,N
1456117435.9,286046992.2,P
1456117455.8,286046991.8,Y
1456117475.6,286047002.2,P
1456117495.4,286047006.0,N
1456117515.3,286047007.1,N
1456117535.1,286047007.5,N
1456117555.8,286047005.0,N
1456117575.7,286047004.8,N
1456117595.5,286047005.1,N
1456117615.3,286047007.2,N
1456117635.2,286047010.8,N
1456117655.9,286047010.7,N
1456117675.7,286047011.0,N
1456117695.6,286047014.0,Y
1456117715.4,286047006.3,P
1456117735.2,286047006.4,P
1456117755.1,286047008.3,P
1456117756.0,286047008.3,Y
1456117775.8,286046999.6,P
1456117795.6,286046999.9,N
1456117815.5,286046999.3,N
1456117835.3,286046996.5,N
1456117855.1,286047000.3,N
1456117875.9,286046998.1,N
1456117895.7,286047001.0,N
1456117915.5,286047001.6,N
1456117935.3,286047003.8,N
1456117955.2,286047002.9,N
1456117975.0,286047004.4,N
1456117975.9,286047004.4,N
1456117995.7,286047001.5,N
1456118015.6,286047006.0,N
1456118035.4,286047005.9,N
1456118055.2,286047006.6,N
1456118075.1,286047009.1,N
1456118076.0,286047009.1,N
1456118095.8,286047004.9,N
1456118115.6,286047003.3,N
1456118135.5,286047000.5,N
1456118155.3,286047002.7,N
1456118175.1,286046998.1,N
1456118195.9,286047000.5,N
1456118215.7,286047000.5,N
1456118235.5,286047002.6,N
1456118255.3,286047002.2,N
1456118275.2,286047002.5,N
1456118295.0,286046999.2,N
1456118295.9,286046999.2,N
1456118315.7,286047000.0,N
1456118335.6,286047004.0,N
1456118355.4,286047004.5,N
1456118375.2,286047004.6,N
1456118395.1,286047005.4,N
1456118396.0,286047005.4,N
1456118415.8,286047007.2,N
1456118435.6,286047006.2,N
1456118455.5,286047006.6,N
1456118475.3,286047006.5,N
1456118495.1,286047005.0,N
1456118515.9,286047008.6,N
1456118535.7,286047010.7,Y
1456118555.5,286047005.5,P
1456118575.4,286047001.5,N
1456118595.2,286047001.0,N
1456118615.0,286046998.4,N
1456118615.9,286046998.4,N
1456118635.8,286046999.6,N
1456118655.6,286046996.9,N
1456118675.4,286046999.0,N
1456118695.3,286046997.1,N
1456118715.1,286047000.6,N
1456118716.0,286047000.6,N
1456118735.8,286046998.4,N
1456118755.7,286046999.5,N
1456118775.5,286046999.4,N
1456118795.3,286046996.6,N
1456118815.1,286046998.8,N
1456118835.9,286046997.1,N
1456118855.7,286046998.4,N
1456118875.5,286046999.5,N
1456118895.4,286046998.3,N
1456118915.2,286047000.8,N
1456118935.0,286046997.6,N
1456118935.9,286046997.6,N
1456118955.8,286046998.0,N
1456118975.6,286046995.2,N
1456118995.4,286046997.5,N
1456119015.3,286046995.1,N
1456119035.1,286046993.7,N
1456119036.0,286046993.7,N
1456119055.8,286046996.4,N
1456119075.7,286046996.2,N
1456119095.5,286046997.7,N
1456119115.3,286047000.8,N
1456119135.2,286047002.8,N
1456119155.9,286046999.9,N
1456119175.7,286046998.1,N
1456119195.5,286046999.4,N
1456119215.4,286046997.6,N
1456119235.2,286046994.9,N
1456119255.0,286046997.6,N
1456119255.9,286046997.6,N
1456119275.8,286046994.5,N
1456119295.6,286046991.8,Y
1456119315.4,286046996.6,P
1456119335.3,286047000.6,N
1456119355.1,286047000.8,N
1456119375.8,286046999.1,N
1456119395.7,286046995.0,Y
1456119415.5,286046998.3,P
1456119435.3,286046999.2,N
1456119455.2,286046996.7,P
1456119475.9,286047000.0,N
1456119495.7,286047001.7,N
1456119515.6,286047004.4,N
1456119535.4,286047001.4,N
1456119555.2,286047004.2,N
1456119575.1,286047005.3,N
1456119576.0,286047005.3,N
1456119595.8,286047004.1,N
1456119615.6,286047003.1,N
1456119635.5,286047006.8,N
1456119655.3,286047010.6,Y
1456119675.1,286047008.0,P
1456119695.9,286047005.4,N
1456119715.7,286047002.8,N
1456119735.5,286047000.3,N
1456119755.3,286046997.0,N
1456119775.2,286046999.2,N
1456119795.0,286046997.5,N
1456119795.9,286046997.5,N
1456119815.7,286047002.3,N
1456119835.6,286046997.0,N
1456119855.4,286046998.0,N
1456119875.2,286046996.1,N
1456119895.1,286047000.0,N
1456119896.0,286047000.0,N
1456119915.8,286047004.2,N
1456119935.6,286047001.8,N
1456119955.5,286047001.7,N
1456119975.3,286046997.1,N
1456119995.1,286046997.4,N
1456120015.9,286046994.7,N
1456120035.7,286046991.8,N
1456120055.5,286046994.1,N
1456120075.3,286046997.7,N
1456120095.2,286046995.6,N
1456120115.0,286046998.9,N
1456120115.9,286046998.9,N
1456120135.7,286047000.9,N
1456120155.6,286046995.6,N
1456120175.4,286046992.5,N
1456120195.2,286046992.4,N
1456120215.1,286046991.7,N
1456120216.0,286046991.7,N
1456120235.8,286046996.4,N
1456120255.6,286046997.3,N
1456120275.5,286046995.2,N
1456120295.3,286046995.8,N
1456120315.1,286046995.1,N
1456120335.9,286046991.7,N
1456120355.7,286046990.7,N
1456120375.5,286046991.0,N
1456120395.4,286046987.3,Y
1456120415.2,286046990.1,P
1456120435.0,286046990.0,P
1456120435.9,286046990.0,P
1456120455.8,286046988.5,Y
1456120475.6,286047001.0,P
1456120495.4,286046998.2,N
1456120515.3,286046995.4,N
1456120535.1,286046997.4,N
1456120536.0,286046997.4,N
1456120555.8,286046999.6,N
1456120575.7,286046996.5,N
1456120595.5,286047001.0,N
1456120615.3,286047003.9,N
1456120635.2,286047005.9,N
1456120655.9,286047007.2,N
1456120675.7,286047006.9,N
1456120695.5,286047008.8,N
1456120715.4,286047007.1,N
1456120735.2,286047006.0,N
1456120755.0,286047003.0,N
1456120755.9,286047003.0,N
1456120775.8,286047001.0,N
1456120795.6,286047002.4,N
